TimeCST,TemperatureF,Dew PointF,Humidity,Sea Level PressureIn,VisibilityMPH,Wind Direction,Wind SpeedMPH,Gust SpeedMPH,PrecipitationIn,Events,Conditions,WindDirDegrees,DateUTC
12:15 AM,-16.6,-27.4,58,30.08,10.0,Calm,Calm,-,N/A,,Clear,0,2013-02-17 06:15:00
12:35 AM,-16.6,-25.6,64,30.08,10.0,Calm,Calm,-,N/A,,Clear,0,2013-02-17 06:35:00
12:55 AM,-9999,-9999,N/A,-9999,-9999.0,North,-9999.0,-,N/A,,Unknown,0,2013-02-17 06:55:00
1:15 AM,-9999,-9999,N/A,30.07,-9999.0,Calm,Calm,-,N/A,,Unknown,0,2013-02-17 07:15:00
1:35 AM,-16.6,-23.8,70,30.08,10.0,Calm,Calm,-,N/A,,Unknown,0,2013-02-17 07:35:00
1:55 AM,-16.6,-23.8,70,30.08,10.0,Calm,Calm,-,N/A,,Clear,0,2013-02-17 07:55:00
2:15 AM,-18.4,-23.8,76,30.08,10.0,Calm,Calm,-,N/A,,Clear,0,2013-02-17 08:15:00
2:35 AM,-18.4,-23.8,76,30.08,10.0,Calm,Calm,-,N/A,,Clear,0,2013-02-17 08:35:00
2:55 AM,-18.4,-20.2,91,30.07,10.0,Calm,Calm,-,N/A,,Clear,0,2013-02-17 08:55:00
3:15 AM,-18.4,-27.4,63,30.07,10.0,Calm,Calm,-,N/A,,Clear,0,2013-02-17 09:15:00
3:35 AM,-18.4,-27.4,63,30.07,10.0,Calm,Calm,-,N/A,,Clear,0,2013-02-17 09:35:00
3:55 AM,-18.4,-25.6,70,30.06,10.0,Calm,Calm,-,N/A,,Clear,0,2013-02-17 09:55:00
4:15 AM,-18.4,-23.8,76,30.06,10.0,Calm,Calm,-,N/A,,Clear,0,2013-02-17 10:15:00
4:35 AM,-18.4,-25.6,70,30.06,10.0,Calm,Calm,-,N/A,,Clear,0,2013-02-17 10:35:00
4:55 AM,-16.6,-16.6,100,30.05,9.0,Calm,Calm,-,N/A,,Clear,0,2013-02-17 10:55:00
5:15 AM,-18.4,-9999,N/A,30.05,10.0,South,3.5,-,N/A,,Clear,170,2013-02-17 11:15:00
5:35 AM,-11.2,-25.6,49,30.04,10.0,Calm,Calm,-,N/A,,Clear,0,2013-02-17 11:35:00
5:55 AM,-7.6,-9.4,92,30.04,10.0,SSE,3.5,-,N/A,,Clear,150,2013-02-17 11:55:00
6:15 AM,-16.6,-9999,N/A,30.03,10.0,SSE,3.5,-,N/A,,Clear,160,2013-02-17 12:15:00
6:35 AM,-18.4,-9999,N/A,30.03,10.0,Calm,Calm,-,N/A,,Clear,0,2013-02-17 12:35:00
6:55 AM,-16.6,-27.4,58,30.04,10.0,Calm,Calm,-,N/A,,Clear,0,2013-02-17 12:55:00
7:15 AM,-16.6,-16.6,100,30.04,10.0,South,3.5,-,N/A,,Clear,170,2013-02-17 13:15:00
7:35 AM,-5.8,-9.4,84,30.04,10.0,Calm,Calm,-,N/A,,Clear,0,2013-02-17 13:35:00
7:55 AM,-7.6,-14.8,71,30.03,10.0,East,4.6,-,N/A,,Clear,80,2013-02-17 13:55:00
8:15 AM,-4.0,-14.8,60,30.03,10.0,ESE,3.5,-,N/A,,Clear,110,2013-02-17 14:15:00
8:35 AM,1.4,-0.4,92,30.02,10.0,South,6.9,-,N/A,,Clear,180,2013-02-17 14:35:00
8:55 AM,3.2,1.4,92,30.03,10.0,South,6.9,-,N/A,,Clear,180,2013-02-17 14:55:00
9:15 AM,5.0,-2.2,72,30.02,10.0,South,8.1,-,N/A,,Clear,180,2013-02-17 15:15:00
12:35 PM,19.4,1.4,46,29.93,10.0,South,8.1,-,N/A,,Clear,170,2013-02-17 18:35:00
12:55 PM,21.2,1.4,42,29.92,0.5,ESE,6.9,-,N/A,,Unknown,110,2013-02-17 18:55:00
1:15 PM,21.2,1.4,42,29.91,10.0,SSE,9.2,-,N/A,,Clear,160,2013-02-17 19:15:00
1:35 PM,23.0,3.2,43,29.90,3.0,SSE,12.7,18.4,N/A,,Clear,160,2013-02-17 19:35:00
1:55 PM,23.0,3.2,43,29.89,10.0,SSE,12.7,19.6,N/A,,Clear,160,2013-02-17 19:55:00
2:15 PM,24.8,3.2,40,29.88,10.0,SSE,12.7,16.1,N/A,,Clear,160,2013-02-17 20:15:00
2:35 PM,24.8,3.2,40,29.87,10.0,SSE,10.4,16.1,N/A,,Clear,160,2013-02-17 20:35:00
2:55 PM,24.8,5.0,43,29.86,10.0,SSE,9.2,17.3,N/A,,Partly Cloudy,160,2013-02-17 20:55:00
3:15 PM,24.8,6.8,46,29.85,10.0,SE,10.4,-,N/A,,Mostly Cloudy,130,2013-02-17 21:15:00
3:35 PM,24.8,6.8,46,29.84,10.0,South,10.4,17.3,N/A,,Overcast,180,2013-02-17 21:35:00
3:55 PM,24.8,6.8,46,29.84,10.0,South,12.7,17.3,N/A,,Overcast,170,2013-02-17 21:55:00
4:15 PM,24.8,6.8,46,29.84,10.0,SSE,4.6,-,N/A,,Overcast,160,2013-02-17 22:15:00
4:35 PM,24.8,6.8,46,29.84,10.0,South,6.9,-,N/A,,Overcast,170,2013-02-17 22:35:00
4:55 PM,24.8,6.8,46,29.83,10.0,SSE,9.2,17.3,N/A,,Overcast,150,2013-02-17 22:55:00
5:15 PM,23.0,5.0,46,29.82,10.0,ESE,8.1,16.1,N/A,,Overcast,120,2013-02-17 23:15:00
5:35 PM,21.2,5.0,50,29.82,10.0,SSE,8.1,16.1,N/A,,Overcast,150,2013-02-17 23:35:00
5:55 PM,21.2,5.0,50,29.81,10.0,SSE,10.4,20.7,N/A,,Mostly Cloudy,150,2013-02-17 23:55:00
6:15 PM,21.2,5.0,50,29.81,10.0,SSE,9.2,17.3,N/A,,Partly Cloudy,150,2013-02-18 00:15:00
6:35 PM,21.2,5.0,50,29.80,10.0,SSE,12.7,-,N/A,,Mostly Cloudy,150,2013-02-18 00:35:00
6:55 PM,21.2,5.0,50,29.79,10.0,SSE,11.5,17.3,N/A,,Partly Cloudy,150,2013-02-18 00:55:00
7:15 PM,21.2,5.0,50,29.78,10.0,SE,13.8,19.6,N/A,,Scattered Clouds,140,2013-02-18 01:15:00
7:35 PM,21.2,5.0,50,29.78,10.0,SSE,10.4,18.4,N/A,,Partly Cloudy,150,2013-02-18 01:35:00
7:55 PM,21.2,5.0,50,29.77,10.0,SSE,11.5,-,N/A,,Partly Cloudy,160,2013-02-18 01:55:00
8:15 PM,21.2,6.8,54,29.76,10.0,SSE,6.9,20.7,N/A,,Scattered Clouds,150,2013-02-18 02:15:00
8:35 PM,21.2,6.8,54,29.75,10.0,SSE,5.8,-,N/A,,Partly Cloudy,160,2013-02-18 02:35:00
8:55 PM,21.2,6.8,54,29.75,10.0,South,8.1,-,N/A,,Partly Cloudy,170,2013-02-18 02:55:00
9:15 PM,21.2,6.8,54,29.73,10.0,SSE,16.1,20.7,N/A,,Partly Cloudy,150,2013-02-18 03:15:00
9:35 PM,21.2,6.8,54,29.72,8.0,South,16.1,27.6,N/A,,Mostly Cloudy,170,2013-02-18 03:35:00
9:55 PM,21.2,10.4,63,29.72,5.0,South,16.1,28.8,N/A,,Overcast,170,2013-02-18 03:55:00
10:15 PM,21.2,8.6,58,29.73,9.0,South,5.8,29.9,N/A,,Mostly Cloudy,170,2013-02-18 04:15:00
10:35 PM,21.2,6.8,54,29.75,10.0,SSW,10.4,21.9,N/A,,Mostly Cloudy,200,2013-02-18 04:35:00
10:55 PM,21.2,6.8,54,29.74,10.0,South,10.4,19.6,N/A,,Scattered Clouds,180,2013-02-18 04:55:00
11:15 PM,21.2,6.8,54,29.74,10.0,South,13.8,18.4,N/A,,Partly Cloudy,170,2013-02-18 05:15:00
11:35 PM,21.2,6.8,54,29.74,10.0,SSE,10.4,19.6,N/A,,Mostly Cloudy,160,2013-02-18 05:35:00
11:55 PM,19.4,6.8,58,29.73,10.0,South,5.8,21.9,N/A,,Overcast,170,2013-02-18 05:55:00